Asheville, NC

2:43 PM EDT on September 26, 2017 (GMT -0400)
Asheville Regional

Weather History for KAVL - October, 2011

Change the Weather History Date:

Wednesday, October 5, 2011

  Actual Average Record
Temperature  
Mean Temperature 61 °F 60 °F  
Max Temperature 80 °F 71 °F 90 °F (1941)
Min Temperature 41 °F 48 °F 29 °F (1968)
Degree Days  
Heating Degree Days 4 6  
Month to date heating degree days 60 27  
Since 1 July heating degree days 98 84  
Cooling Degree Days 0 1  
Month to date cooling degree days 0 5  
Year to date cooling degree days 1201 857  
Growing Degree Days 11 (Base 50)    
Moisture  
Dew Point 46 °F    
Average Humidity 62    
Maximum Humidity 96    
Minimum Humidity 28    
Precipitation  
Precipitation 0.00 in 0.10 in 1.93 in (1995)
Month to date precipitation T 0.53  
Year to date precipitation 33.22 35.95  
Snow  
Snow 0.00 in 0.00 in 0.00 in ()
Month to date snowfall 0.0 0.0  
Since 1 July snowfall 0.0 0.0  
Since 1 September snowfall 0.0 0.0  
Snow Depth 0.00 in    
Sea Level Pressure  
Sea Level Pressure 30.25 in    
Wind  
Wind Speed 2 mph (NNW)    
Max Wind Speed 10 mph    
Max Gust Speed 14 mph    
Visibility 10 miles    
Events      
T = Trace of Precipitation, MM = Missing Value Source: NWS Daily Summary

Daily Weather History Graph

Daily Weather History Graph

Search for Another Location

Airport or City:

Trip Planner

Search our weather history database for the weather conditions in past years. The results will help you decide how hot, cold, wet, or windy it might be!

Date:

Astronomy

Oct. 05, 2011 Rise Set
Actual Time 7:27 AM EDT 7:08 PM EDT
Civil Twilight 7:02 AM EDT 7:34 PM EDT
Nautical Twilight 6:33 AM EDT 8:03 PM EDT
Astronomical Twilight 6:03 AM EDT 8:33 PM EDT
Moon 3:37 PM EDT (10/5) 1:25 AM EDT (10/5)
Length of Visible Light 12h 31m
Length of Day
11h 40m
Waxing Gibbous, 66% of the Moon is Illuminated
Oct 5
Waxing Gibbous
Oct 11
Full
Oct 19
Last Quarter
Oct 26
New
Nov 2
First Quarter

Hourly Weather History & Observations

Time (EDT) Temp. Dew Point Humidity Pressure Visibility Wind Dir Wind Speed Gust Speed Precip Events Conditions
12:54 AM 48.9 °F 45.0 °F 86% 30.26 in 10.0 mi Calm Calm - N/A   Clear
1:54 AM 46.9 °F 45.0 °F 93% 30.27 in 10.0 mi Calm Calm - N/A   Clear
2:54 AM 46.4 °F 44.6 °F 93% 30.30 in 10.0 mi Calm Calm - N/A   Clear
3:54 AM 46.0 °F 43.0 °F 89% 30.26 in 10.0 mi Calm Calm - N/A   Clear
4:54 AM 45.0 °F 42.1 °F 90% 30.26 in 10.0 mi Calm Calm - N/A   Clear
5:54 AM 43.0 °F 41.0 °F 93% 30.28 in 8.0 mi Calm Calm - N/A   Clear
6:54 AM 43.0 °F 41.0 °F 93% 30.29 in 10.0 mi Calm Calm - N/A   Clear
7:54 AM 43.0 °F 41.0 °F 93% 30.30 in 10.0 mi Calm Calm - N/A   Clear
8:54 AM 48.2 °F 44.6 °F 87% 30.34 in 10.0 mi Calm Calm - N/A   Clear
9:54 AM 55.9 °F 46.9 °F 72% 30.31 in 10.0 mi NNW 5.8 mph - N/A   Clear
10:54 AM 63.0 °F 48.0 °F 58% 30.29 in 10.0 mi Variable 5.8 mph - N/A   Clear
11:54 AM 69.1 °F 46.0 °F 44% 30.27 in 10.0 mi North 6.9 mph - N/A   Clear
12:54 PM 73.0 °F 44.1 °F 35% 30.26 in 10.0 mi NNW 9.2 mph - N/A   Clear
1:54 PM 77.0 °F 43.0 °F 30% 30.23 in 10.0 mi North 5.8 mph - N/A   Clear
2:54 PM 79.0 °F 43.0 °F 28% 30.20 in 10.0 mi Calm Calm - N/A   Clear
3:54 PM 79.0 °F 43.0 °F 28% 30.19 in 10.0 mi WNW 4.6 mph - N/A   Clear
4:54 PM 79.0 °F 46.0 °F 31% 30.17 in 10.0 mi West 4.6 mph - N/A   Clear
5:54 PM 75.9 °F 48.9 °F 38% 30.18 in 10.0 mi Variable 4.6 mph - N/A   Clear
6:54 PM 73.0 °F 52.0 °F 48% 30.20 in 10.0 mi Calm Calm - N/A   Clear
7:54 PM 66.0 °F 53.1 °F 63% 30.23 in 10.0 mi Calm Calm - N/A   Clear
8:54 PM 60.1 °F 53.1 °F 78% 30.24 in 10.0 mi Calm Calm - N/A   Clear
9:54 PM 57.9 °F 54.0 °F 87% 30.25 in 10.0 mi Calm Calm - N/A   Clear
10:54 PM 55.9 °F 52.0 °F 87% 30.25 in 10.0 mi Calm Calm - N/A   Clear
11:54 PM 54.0 °F 51.1 °F 90% 30.25 in 10.0 mi Calm Calm - N/A   Clear